#timestamp,LO_Frequency,Hit,Temp,Hum 
1493848815.0,286047020.1,N,0.0,0.0
1493848815.9,286047020.1,N,0.0,0.0
1493848835.8,286046978.2,N,0.0,0.0
1493848855.6,286046977.4,N,0.0,0.0
1493848875.4,286047468.3,Y,0.0,0.0
1493848895.3,286046389.1,Y,0.0,0.0
1493848915.1,286047036.2,N,0.0,0.0
1493848916.0,286047036.2,N,0.0,0.0
1493848935.8,286047324.0,Y,0.0,0.0
1493848955.7,286047331.9,Y,0.0,0.0
1493848975.5,286047337.8,Y,0.0,0.0
1493848995.4,286047339.9,Y,0.0,0.0
1493849015.2,286047341.2,Y,0.0,0.0
1493849035.0,286047343.2,Y,0.0,0.0
1493849036.0,286047343.2,Y,0.0,0.0
1493849055.8,286047341.7,Y,0.0,0.0
1493849075.6,286047333.4,Y,0.0,0.0
1493849095.5,286047324.8,Y,0.0,0.0
1493849115.3,286047316.2,N,0.0,0.0
1493849135.1,286047315.7,N,0.0,0.0
1493849155.9,286047315.0,N,0.0,0.0
1493849175.7,286047315.6,N,0.0,0.0
1493849195.5,286047396.6,Y,0.0,0.0
1493849215.4,286046958.7,N,0.0,0.0
1493849235.1,286046956.7,N,0.0,0.0
1493849236.0,286046956.7,N,0.0,0.0
1493849255.8,286046956.1,N,0.0,0.0
1493849275.7,286046959.5,N,0.0,0.0
1493849295.5,286046958.0,N,0.0,0.0
1493849315.3,286046956.7,N,0.0,0.0
1493849335.2,286046954.1,N,0.0,0.0
1493849355.9,286046956.2,N,0.0,0.0
1493849375.7,286046955.6,N,0.0,0.0
1493849395.5,286046959.1,N,0.0,0.0
1493849415.4,286046954.2,N,0.0,0.0
1493849435.2,286046957.0,N,0.0,0.0
1493849455.0,286046956.8,N,0.0,0.0
1493849455.9,286046956.8,N,0.0,0.0
1493849475.8,286046957.0,N,0.0,0.0
1493849495.6,286046959.0,N,0.0,0.0
1493849515.4,286046958.6,N,0.0,0.0
1493849535.3,286046960.3,N,0.0,0.0
1493849555.1,286046982.9,N,0.0,0.0
1493849575.8,286046979.6,N,0.0,0.0
1493849595.7,286046979.6,N,0.0,0.0
1493849615.5,286046980.0,N,0.0,0.0
1493849635.3,286046979.1,N,0.0,0.0
1493849655.2,286046980.8,N,0.0,0.0
1493849675.0,286046958.2,N,0.0,0.0
1493849675.9,286046958.2,N,0.0,0.0
1493849695.7,286046911.3,N,0.0,0.0
1493849715.6,286046959.2,N,0.0,0.0
1493849735.4,286046957.2,N,0.0,0.0
1493849755.2,286046957.2,N,0.0,0.0
1493849775.1,286046958.9,N,0.0,0.0
1493849795.5,286046961.2,N,0.0,0.0
1493849815.3,286046909.2,N,0.0,0.0
1493849835.1,286046458.4,Y,0.0,0.0
1493849855.9,286046410.8,Y,0.0,0.0
1493849875.9,286046933.7,N,0.0,0.0
1493849895.7,286047043.5,N,0.0,0.0
1493849915.5,286046932.6,N,0.0,0.0
1493849935.1,286047044.1,N,0.0,0.0
1493849936.0,286047044.1,N,0.0,0.0
1493849955.8,286047039.6,N,0.0,0.0
1493849975.6,286046932.9,N,0.0,0.0
1493849995.5,286046930.9,N,0.0,0.0
1493850015.3,286046931.5,N,0.0,0.0
1493850035.1,286047210.7,N,0.0,0.0
1493850055.9,286047207.2,N,0.0,0.0
1493850075.7,286047203.4,N,0.0,0.0
1493850095.5,286047208.1,N,0.0,0.0
1493850115.4,286047208.9,N,0.0,0.0
1493850135.2,286047209.4,N,0.0,0.0
1493850155.0,286047208.6,N,0.0,0.0
1493850155.9,286047208.6,N,0.0,0.0
1493850175.8,286047203.0,N,0.0,0.0
1493850195.6,286047154.7,N,0.0,0.0
1493850215.8,286047201.5,N,0.0,0.0
1493850235.6,286047197.0,N,0.0,0.0
1493850255.5,286046299.4,Y,0.0,0.0
1493850275.3,286046278.5,Y,0.0,0.0
1493850295.1,286047160.7,N,0.0,0.0
1493850315.9,286047116.5,N,0.0,0.0
1493850335.7,286047116.5,N,0.0,0.0
1493850355.5,286047119.0,N,0.0,0.0
1493850375.4,286047119.1,N,0.0,0.0
1493850395.2,286047149.7,N,0.0,0.0
1493850415.0,286047115.4,N,0.0,0.0
1493850415.9,286047115.4,N,0.0,0.0
1493850435.8,286047115.9,N,0.0,0.0
1493850455.6,286046572.7,N,0.0,0.0
1493850475.4,286047117.7,N,0.0,0.0
1493850495.3,286047119.3,N,0.0,0.0
1493850515.1,286046560.2,N,0.0,0.0
1493850516.0,286046560.2,N,0.0,0.0
1493850535.8,286047124.1,N,0.0,0.0
1493850555.7,286047143.2,N,0.0,0.0
1493850575.5,286046255.8,Y,0.0,0.0
1493850595.2,286046241.2,Y,0.0,0.0
1493850615.9,286046231.1,Y,0.0,0.0
1493850635.8,286046222.8,Y,0.0,0.0
1493850655.6,286046220.7,Y,0.0,0.0
1493850675.4,286046221.1,Y,0.0,0.0
1493850695.7,286046228.6,Y,0.0,0.0
1493850715.6,286046239.0,Y,0.0,0.0
1493850735.4,286046254.8,Y,0.0,0.0
1493850755.3,286046272.3,Y,0.0,0.0
1493850775.1,286046292.7,N,0.0,0.0
1493850795.8,286046288.8,N,0.0,0.0
1493850815.7,286046288.8,N,0.0,0.0
1493850835.5,286046298.7,N,0.0,0.0
1493850855.3,286046297.7,N,0.0,0.0
1493850875.2,286046297.5,N,0.0,0.0
1493850895.9,286046287.9,N,0.0,0.0
1493850915.7,286046297.2,N,0.0,0.0
1493850935.7,286046297.1,N,0.0,0.0
1493850955.5,286046294.2,N,0.0,0.0
1493850975.4,286046294.4,N,0.0,0.0
1493850995.2,286046182.2,N,0.0,0.0
1493851015.0,286046297.0,N,0.0,0.0
1493851035.3,286046299.1,N,0.0,0.0
1493851055.1,286046946.1,N,0.0,0.0
1493851075.6,286046929.2,N,0.0,0.0
1493851095.5,286046921.3,N,0.0,0.0
1493851115.3,286046947.1,N,0.0,0.0
1493851135.1,286046906.6,N,0.0,0.0
1493851155.8,286046954.1,N,0.0,0.0
1493851175.7,286046952.3,N,0.0,0.0
1493851195.5,286046951.0,N,0.0,0.0
1493851215.3,286046952.9,N,0.0,0.0
1493851235.8,286046951.1,N,0.0,0.0
1493851255.7,286046949.8,N,0.0,0.0
1493851275.5,286046950.0,N,0.0,0.0
1493851295.3,286046947.4,N,0.0,0.0
1493851315.2,286046945.6,N,0.0,0.0
1493851335.9,286046958.9,N,0.0,0.0
1493851355.7,286046958.8,N,0.0,0.0
1493851375.6,286046960.3,N,0.0,0.0
1493851395.5,286046963.9,N,0.0,0.0
1493851415.3,286046963.4,N,0.0,0.0
1493851435.1,286046965.1,N,0.0,0.0
1493851455.9,286046966.9,N,0.0,0.0
1493851475.7,286046967.4,N,0.0,0.0
1493851495.5,286046983.3,N,0.0,0.0
1493851515.4,286046967.1,N,0.0,0.0
1493851535.2,286047087.3,N,0.0,0.0
1493851555.0,286047104.4,N,0.0,0.0
1493851555.9,286047104.4,N,0.0,0.0
1493851575.8,286047105.5,N,0.0,0.0
1493851595.6,286047136.6,N,0.0,0.0
1493851615.4,286047136.0,N,0.0,0.0
1493851635.3,286047138.7,N,0.0,0.0
1493851655.1,286047144.0,N,0.0,0.0
1493851656.0,286047144.0,N,0.0,0.0
1493851675.8,286047144.5,N,0.0,0.0
1493851695.7,286047144.7,N,0.0,0.0
1493851715.5,286047144.8,N,0.0,0.0
1493851735.5,286047144.6,N,0.0,0.0
1493851755.4,286047142.1,N,0.0,0.0
1493851775.2,286047040.0,N,0.0,0.0
1493851795.0,286047042.3,N,0.0,0.0
1493851795.9,286047042.3,N,0.0,0.0
1493851815.8,286046998.8,N,0.0,0.0
1493851835.6,286046997.1,N,0.0,0.0
1493851855.4,286046998.5,N,0.0,0.0
1493851875.3,286046999.5,N,0.0,0.0
1493851895.1,286046997.4,N,0.0,0.0
1493851915.8,286047094.7,N,0.0,0.0
1493851935.7,286047095.2,N,0.0,0.0
1493851955.5,286047091.2,N,0.0,0.0
1493851975.3,286046997.7,N,0.0,0.0
1493851995.2,286047093.7,N,0.0,0.0
1493852015.9,286047086.1,N,0.0,0.0
1493852035.7,286047088.4,N,0.0,0.0
1493852055.6,286047089.2,N,0.0,0.0
1493852075.6,286047044.2,N,0.0,0.0
1493852095.5,286047041.8,N,0.0,0.0
1493852115.8,286047083.0,N,0.0,0.0
1493852135.6,286047043.0,N,0.0,0.0
1493852155.5,286047043.0,N,0.0,0.0
1493852175.1,286047077.3,N,0.0,0.0
1493852176.0,286047077.3,N,0.0,0.0
1493852195.8,286047081.7,N,0.0,0.0
1493852215.6,286047074.9,N,0.0,0.0
1493852235.4,286047075.5,N,0.0,0.0
1493852255.2,286047076.0,N,0.0,0.0
1493852275.0,286047072.0,N,0.0,0.0
1493852275.9,286047072.0,N,0.0,0.0
1493852295.8,286047033.8,N,0.0,0.0
1493852315.1,286047034.0,N,0.0,0.0
1493852316.0,286047034.0,N,0.0,0.0
1493852335.8,286047031.9,N,0.0,0.0
1493852355.6,286047034.0,N,0.0,0.0
1493852375.5,286047032.3,N,0.0,0.0
1493852395.3,286047034.5,N,0.0,0.0
